This is the latest recevied weather packets stored in our database for station/object KQ4JKJ. If no packets are shown the sender has not sent any weather packets the latest 1 day(s).
| Time | Temp. | Humidity | Pressure | Rain* | Wind** | Luminosity | Snow |
|---|---|---|---|---|---|---|---|
| 1778032693 | 23.89° C | 73% | 1010.6 hPa | 0 mm | - | 0 W/m² | - |
| 1778032087 | 23.89° C | 69% | 1010.6 hPa | 0 mm | - | 0 W/m² | - |
| 1778031784 | 23.89° C | 70% | 1010.4 hPa | 0 mm | - | 0 W/m² | - |
| 1778031481 | 23.89° C | 71% | 1010.4 hPa | 0 mm | - | 0 W/m² | - |
| 1778030874 | 23.89° C | 72% | 1010.3 hPa | 0 mm | - | 0 W/m² | - |
| 1778029663 | 23.89° C | 69% | 1009.9 hPa | 0 mm | - | 0 W/m² | - |
| 1778029360 | 23.89° C | 67% | 1009.7 hPa | 0 mm | - | 0 W/m² | - |
| 1778028754 | 23.89° C | 70% | 1009.8 hPa | 0 mm | - | 0 W/m² | - |
| 1778027843 | 23.89° C | 72% | 1009.9 hPa | 0 mm | - | 0 W/m² | - |
| 1778027236 | 23.89° C | 72% | 1009.8 hPa | 0 mm | - | 0 W/m² | - |
| 1778026932 | 23.89° C | 72% | 1009.7 hPa | 0 mm | - | 0 W/m² | - |
| 1778026628 | 23.89° C | 72% | 1009.9 hPa | 0 mm | - | 0 W/m² | - |
| 1778026023 | 23.89° C | 70% | 1009.6 hPa | 0 mm | - | 1 W/m² | - |
| 1778025418 | 24.44° C | 68% | 1009.8 hPa | 0 mm | - | 3 W/m² | - |
| 1778023601 | 25° C | 64% | 1009.5 hPa | 0 mm | - | 22 W/m² | - |
| 1778022694 | 25° C | 63% | 1009.6 hPa | 0 mm | - | 31 W/m² | - |
| 1778021784 | 25.56° C | 61% | 1009.8 hPa | 0 mm | - | 41 W/m² | - |
| 1778021177 | 25.56° C | 64% | 1010 hPa | 0 mm | - | 46 W/m² | - |
| 1778018449 | 26.11° C | 58% | 1010.2 hPa | 0 mm | - | 70 W/m² | - |
| 1778018147 | 26.11° C | 60% | 1010.1 hPa | 0 mm | - | 77 W/m² | - |
| 1778015117 | 27.22° C | 56% | 1009.8 hPa | 0 mm | - | 315 W/m² | - |
| 1778013907 | 27.78° C | 57% | 1009.8 hPa | 0 mm | - | 406 W/m² | - |
| 1778013300 | 27.78° C | 54% | 1009.8 hPa | 0 mm | - | 389 W/m² | - |
| 1778011482 | 27.78° C | 50% | 1010 hPa | 0 mm | - | 509 W/m² | - |
| 1778011177 | 27.78° C | 51% | 1010.2 hPa | 0 mm | - | 563 W/m² | - |
* Rain latest hour (hover to see other rain measurements)
** Current wind speed in m/s (hover to see current wind gust speed)